Ottumwa, IA

7:32 PM CDT on June 25, 2017 (GMT -0500)
Ottumwa Industrial

Weather History for KOTM - January, 2014

Change the Weather History Date:

Wednesday, January 15, 2014

  Actual Average Record
Temperature  
Mean Temperature 20 °F 22 °F  
Max Temperature 28 °F 31 °F 59 °F (1990)
Min Temperature 11 °F 13 °F -20 °F (1979)
Degree Days  
Heating Degree Days 45 43  
Month to date heating degree days 630 639  
Since 1 July heating degree days 3304 3144  
Cooling Degree Days 0 0  
Month to date cooling degree days 0 0  
Year to date cooling degree days 0 0  
Moisture  
Dew Point 8 °F    
Average Humidity 63    
Maximum Humidity 76    
Minimum Humidity 50    
Precipitation  
Precipitation 0.00 in 0.03 in 0.86 in (1969)
Month to date precipitation 0.04 0.47  
Year to date precipitation 0.04 0.47  
Sea Level Pressure  
Sea Level Pressure 30.08 in    
Wind  
Wind Speed 14 mph (West)    
Max Wind Speed 24 mph    
Max Gust Speed 29 mph    
Visibility 10 miles    
Events      
T = Trace of Precipitation, MM = Missing Value Source: NWS Daily Summary

Daily Weather History Graph

Daily Weather History Graph

Search for Another Location

Airport or City:

Trip Planner

Search our weather history database for the weather conditions in past years. The results will help you decide how hot, cold, wet, or windy it might be!

Date:

Astronomy

Jan. 15, 2014 Rise Set
Actual Time 7:32 AM CST 5:06 PM CST
Civil Twilight 7:02 AM CST 5:36 PM CST
Nautical Twilight 6:28 AM CST 6:10 PM CST
Astronomical Twilight 5:55 AM CST 6:43 PM CST
Moon 5:04 PM CST (1/15) 6:48 AM CST (1/15)
Length of Visible Light 10h 33m
Length of Day
9h 33m
Full, 100% of the Moon is Illuminated
Jan 15
Full
Jan 15
Full
Jan 23
Last Quarter
Jan 30
New
Feb 6
First Quarter

Hourly Weather History & Observations

Time (CST) Temp. Windchill Dew Point Humidity Pressure Visibility Wind Dir Wind Speed Gust Speed Precip Events Conditions
12:20 AM 17.1 °F 2.0 °F 9.0 °F 71% 30.11 in 10.0 mi NW 16.1 mph - N/A   Scattered Clouds
12:53 AM 16.0 °F -0.9 °F 7.0 °F 68% 30.15 in 10.0 mi NW 19.6 mph - N/A   Clear
1:53 AM 14.0 °F -0.2 °F 7.0 °F 74% 30.17 in 10.0 mi NW 12.7 mph - N/A   Clear
2:53 AM 12.9 °F -4.4 °F 6.1 °F 74% 30.19 in 10.0 mi NW 18.4 mph - N/A   Clear
3:53 AM 12.9 °F -2.2 °F 6.1 °F 74% 30.19 in 10.0 mi NW 13.8 mph - N/A   Partly Cloudy
4:53 AM 10.9 °F -4.1 °F 5.0 °F 77% 30.20 in 10.0 mi NW 12.7 mph - N/A   Clear
5:53 AM 10.9 °F -3.4 °F 5.0 °F 77% 30.21 in 10.0 mi NW 11.5 mph - N/A   Clear
6:53 AM 10.9 °F -4.7 °F 3.9 °F 73% 30.22 in 10.0 mi NW 13.8 mph - N/A   Clear
7:53 AM 10.9 °F -5.4 °F 3.9 °F 73% 30.21 in 10.0 mi NNW 15.0 mph - N/A   Clear
8:53 AM 12.0 °F -3.4 °F 5.0 °F 73% 30.24 in 10.0 mi NNW 13.8 mph - N/A   Mostly Cloudy
9:53 AM 15.1 °F 1.1 °F 6.1 °F 68% 30.23 in 10.0 mi NW 12.7 mph - N/A   Overcast
10:53 AM 15.1 °F 3.3 °F 6.1 °F 68% 30.22 in 10.0 mi WNW 9.2 mph - N/A   Overcast
11:53 AM 17.1 °F 4.3 °F 8.1 °F 68% 30.19 in 10.0 mi WSW 11.5 mph - N/A   Overcast
12:53 PM 19.0 °F 9.0 °F 9.0 °F 65% 30.15 in 10.0 mi WSW 8.1 mph - N/A   Mostly Cloudy
1:10 PM 19.9 °F 7.9 °F 9.0 °F 62% 30.09 in 10.0 mi West 11.5 mph 17.3 mph N/A   Scattered Clouds
1:53 PM 21.9 °F 12.5 °F 9.0 °F 58% 30.11 in 10.0 mi West 8.1 mph - N/A   Partly Cloudy
2:53 PM 24.1 °F 13.1 °F 10.0 °F 55% 30.06 in 10.0 mi South 11.5 mph - N/A   Clear
3:53 PM 25.0 °F 14.2 °F 10.9 °F 55% 30.04 in 10.0 mi SSW 11.5 mph - N/A   Clear
4:53 PM 26.1 °F 15.6 °F 10.0 °F 51% 30.02 in 10.0 mi SSW 11.5 mph - N/A   Scattered Clouds
5:53 PM 25.0 °F 14.2 °F 10.9 °F 55% 29.99 in 10.0 mi South 11.5 mph - N/A   Overcast
6:53 PM 26.1 °F 14.5 °F 10.9 °F 53% 29.96 in 10.0 mi SSW 13.8 mph - N/A   Overcast
7:53 PM 26.1 °F 13.6 °F 10.9 °F 53% 29.92 in 10.0 mi South 16.1 mph - N/A   Overcast
8:53 PM 26.1 °F 13.6 °F 10.0 °F 51% 29.88 in 10.0 mi SSW 16.1 mph 24.2 mph N/A   Overcast
9:53 PM 27.0 °F 14.3 °F 10.0 °F 49% 29.84 in 10.0 mi SSW 17.3 mph - N/A   Overcast
10:53 PM 28.0 °F 14.9 °F 14.0 °F 56% 29.80 in 10.0 mi SSW 19.6 mph - N/A   Overcast
11:53 PM 28.0 °F 15.7 °F 16.0 °F 61% 29.76 in 10.0 mi SSW 17.3 mph - N/A   Partly Cloudy